TimeCST,TemperatureF,Dew PointF,Humidity,Sea Level PressureIn,VisibilityMPH,Wind Direction,Wind SpeedMPH,Gust SpeedMPH,PrecipitationIn,Events,Conditions,WindDirDegrees,DateUTC
12:15 AM,39.0,31.8,75,30.19,10.0,SSW,6.9,-,N/A,,Clear,210,2013-01-23 06:15:00
12:35 AM,39.9,31.8,73,30.18,10.0,WSW,9.2,-,N/A,,Clear,250,2013-01-23 06:35:00
12:55 AM,44.2,30.7,59,30.18,10.0,SW,8.1,-,N/A,,Clear,220,2013-01-23 06:55:00
1:15 AM,41.7,30.7,65,30.18,10.0,SSW,5.8,-,N/A,,Clear,200,2013-01-23 07:15:00
1:35 AM,39.7,30.6,70,30.19,10.0,SW,5.8,-,N/A,,Clear,220,2013-01-23 07:35:00
1:55 AM,38.5,30.6,73,30.19,10.0,South,3.5,-,N/A,,Clear,180,2013-01-23 07:55:00
2:15 AM,37.8,30.2,74,30.18,10.0,West,3.5,-,N/A,,Clear,260,2013-01-23 08:15:00
2:35 AM,38.3,30.0,72,30.18,10.0,West,3.5,-,N/A,,Clear,260,2013-01-23 08:35:00
2:55 AM,36.3,28.9,75,30.19,10.0,ESE,5.8,-,N/A,,Clear,110,2013-01-23 08:55:00
3:15 AM,34.3,28.8,80,30.19,10.0,ENE,3.5,-,N/A,,Clear,70,2013-01-23 09:15:00
3:35 AM,34.7,30.0,83,30.20,10.0,ENE,5.8,-,N/A,,Clear,70,2013-01-23 09:35:00
3:55 AM,35.6,30.2,81,30.19,10.0,East,5.8,-,N/A,,Clear,90,2013-01-23 09:55:00
4:15 AM,34.2,29.5,83,30.19,10.0,ESE,5.8,-,N/A,,Clear,120,2013-01-23 10:15:00
4:35 AM,33.8,30.6,88,30.20,10.0,ESE,4.6,-,N/A,,Clear,120,2013-01-23 10:35:00
4:55 AM,34.2,30.9,88,30.20,10.0,ESE,6.9,-,N/A,,Clear,120,2013-01-23 10:55:00
5:15 AM,35.1,31.6,87,30.20,10.0,East,3.5,-,N/A,,Clear,100,2013-01-23 11:15:00
5:35 AM,34.7,31.3,87,30.21,10.0,Calm,Calm,-,N/A,,Clear,0,2013-01-23 11:35:00
5:55 AM,34.2,30.4,86,30.21,10.0,Calm,Calm,-,N/A,,Clear,0,2013-01-23 11:55:00
6:15 AM,34.0,30.4,87,30.22,10.0,Calm,Calm,-,N/A,,Clear,0,2013-01-23 12:15:00
6:35 AM,33.4,30.4,89,30.23,10.0,Calm,Calm,-,N/A,,Clear,0,2013-01-23 12:35:00
6:55 AM,33.3,30.6,90,30.24,10.0,NNW,3.5,-,N/A,,Clear,340,2013-01-23 12:55:00
7:15 AM,32.0,28.4,87,30.24,10.0,Calm,Calm,-,N/A,,Clear,0,2013-01-23 13:15:00
7:35 AM,30.9,27.5,87,30.25,10.0,Calm,Calm,-,N/A,,Clear,0,2013-01-23 13:35:00
9:35 AM,40.1,32.2,73,30.29,10.0,Calm,Calm,-,N/A,,Clear,0,2013-01-23 15:35:00
10:15 AM,43.7,33.6,68,30.30,10.0,Calm,Calm,-,N/A,,Clear,0,2013-01-23 16:15:00
10:35 AM,46.2,34.0,62,30.30,10.0,Calm,Calm,-,N/A,,Clear,0,2013-01-23 16:35:00
10:55 AM,49.6,34.5,56,30.30,10.0,Calm,Calm,-,N/A,,Clear,0,2013-01-23 16:55:00
11:55 AM,56.1,34.5,44,30.29,10.0,Calm,Calm,-,N/A,,Clear,0,2013-01-23 17:55:00
12:15 PM,60.1,35.2,39,30.28,10.0,Calm,Calm,-,N/A,,Clear,0,2013-01-23 18:15:00
12:55 PM,65.3,36.3,34,30.25,10.0,NE,3.5,-,N/A,,Clear,40,2013-01-23 18:55:00
1:15 PM,67.3,35.6,31,30.24,10.0,Calm,Calm,-,N/A,,Clear,0,2013-01-23 19:15:00
1:35 PM,71.1,34.2,26,30.23,10.0,Calm,Calm,-,N/A,,Clear,0,2013-01-23 19:35:00
2:35 PM,77.0,27.3,16,30.19,10.0,West,17.3,23.0,N/A,,Clear,260,2013-01-23 20:35:00
2:55 PM,77.9,27.0,15,30.18,10.0,West,17.3,24.2,N/A,,Clear,260,2013-01-23 20:55:00
3:15 PM,78.1,27.0,15,30.18,10.0,WSW,16.1,-,N/A,,Clear,250,2013-01-23 21:15:00
3:55 PM,78.4,27.9,16,30.17,10.0,WSW,13.8,-,N/A,,Clear,250,2013-01-23 21:55:00
4:55 PM,76.8,28.2,17,30.17,10.0,West,18.4,-,N/A,,Clear,260,2013-01-23 22:55:00
5:35 PM,74.5,28.8,18,30.16,10.0,West,9.2,-,N/A,,Clear,260,2013-01-23 23:35:00
5:55 PM,71.8,29.5,21,30.17,10.0,West,6.9,-,N/A,,Clear,260,2013-01-23 23:55:00
7:15 PM,58.1,30.7,35,30.18,10.0,SW,8.1,-,N/A,,Clear,230,2013-01-24 01:15:00
7:35 PM,57.4,30.7,36,30.18,10.0,WSW,6.9,-,N/A,,Clear,240,2013-01-24 01:35:00
8:15 PM,58.8,29.8,33,30.19,10.0,WSW,6.9,-,N/A,,Clear,250,2013-01-24 02:15:00
8:55 PM,52.0,32.0,47,30.19,10.0,WSW,6.9,-,N/A,,Clear,240,2013-01-24 02:55:00
9:15 PM,50.7,32.2,49,30.19,10.0,WSW,6.9,-,N/A,,Clear,240,2013-01-24 03:15:00
10:15 PM,48.2,33.1,56,30.20,10.0,West,5.8,-,N/A,,Clear,260,2013-01-24 04:15:00
10:35 PM,44.1,32.2,63,30.20,10.0,SSW,3.5,-,N/A,,Clear,200,2013-01-24 04:35:00
10:55 PM,44.1,32.5,64,30.21,10.0,South,4.6,-,N/A,,Clear,170,2013-01-24 04:55:00
11:15 PM,42.8,32.4,67,30.22,10.0,South,5.8,-,N/A,,Clear,180,2013-01-24 05:15:00
11:35 PM,43.3,32.9,67,30.22,10.0,SSW,5.8,-,N/A,,Clear,200,2013-01-24 05:35:00
11:55 PM,44.6,33.3,64,30.22,10.0,SSW,4.6,-,N/A,,Clear,200,2013-01-24 05:55:00